Flag for U.S.A. Weather past 2 weeks in Missoula, Montana, U.S.A.

Now
70 °F

Sunny.


Feels Like: 75 °F
Forecast: 39 / 68 °F
Wind: No wind

Location: Missoula International Airport

Current Time: Apr 21, 2015 at 7:49:20 PM

Latest Report: Apr 21, 2015 at 6:53 PM


Visibility: 10 mi

Pressure: 29.75 "Hg

Humidity: 23%

Dew point: 30 °F

Location of MissoulaLocation

Historic Weather in Missoula — Graph

°F

Missoula temperature yesterday

Maximum temperature yesterday: 70 °F (at 4:53 PM)
Minimum temperature yesterday: 31 °F (at 6:53 AM)
Average temperature yesterday: 50 °F

Past Weeks' High & Low Weather Summary

 TemperatureHumidityPressure
High72 °F (Apr 21, 5:53 PM)100% (Apr 12, 2:59 AM)30.45 "Hg (Apr 12, 2:59 AM)
Low21 °F (Apr 7, 6:00 AM)15% (Apr 13, 4:53 PM)29.61 "Hg (Apr 14, 2:53 AM)
Average45 °F54%30.04 "Hg
* Reported Apr 6 6:53 PM — Apr 21 6:53 PM, Missoula, Weather by CustomWeather, © 2015

Note: Actual official high and low records may vary slightly from our data, if they occured in-between our weather recording intervals... More about our weather records

Advertising

Missoula weather history for previous 24 hours

 ConditionsComfort  
Time TempWeatherWind HumidityBarometerVisibility
6:53 PM
Tue, Apr 21
70 °FSunny.No wind23%29.75 "Hg10 mi
5:53 PM72 °FSunny.No wind20%29.75 "Hg10 mi
4:53 PM71 °FSunny.3 mph23%29.77 "Hg10 mi
3:53 PM71 °FSunny.6 mph23%29.78 "Hg10 mi
2:53 PM70 °FSunny.6 mph25%29.80 "Hg10 mi
1:53 PM69 °FSunny.5 mph26%29.83 "Hg10 mi
12:53 PM62 °FSunny.No wind32%29.87 "Hg10 mi
11:53 AM58 °FSunny.No wind41%29.89 "Hg10 mi
10:53 AM52 °FSunny.5 mph49%29.92 "Hg10 mi
9:53 AM48 °FSunny.3 mph59%29.93 "Hg10 mi
8:53 AM43 °FSunny.3 mph71%29.93 "Hg10 mi
7:53 AM37 °FSunny.No wind82%29.94 "Hg10 mi
6:53 AM36 °FClear.3 mph79%29.91 "Hg10 mi
5:53 AM37 °FClear.No wind76%29.90 "Hg10 mi
4:53 AM39 °FClear.No wind70%29.88 "Hg10 mi
3:53 AM39 °FClear.3 mph70%29.88 "Hg10 mi
2:53 AM41 °FClear.No wind67%29.87 "Hg10 mi
1:53 AM43 °FClear.No wind62%29.87 "Hg10 mi
12:53 AM43 °FClear.No wind62%29.87 "Hg10 mi
11:53 PM
Mon, Apr 20
45 °FClear.No wind58%29.86 "Hg10 mi
10:53 PM48 °FClear.3 mph54%29.86 "Hg10 mi
9:53 PM54 °FClear.6 mph41%29.85 "Hg10 mi
8:53 PM59 °FSunny.5 mph35%29.83 "Hg10 mi
7:53 PM62 °FSunny.6 mph32%29.83 "Hg10 mi
Weather by CustomWeather, © 2015

See weather overviewHow to use our weather pages